Weather History for Pottstown, PA

Change the Weather History Date:

Monday, November 19, 2012

  Actual Average (KRDG) Record (KRDG)
Temperature  
Mean Temperature 44 °F 43 °F  
Max Temperature 53 °F 52 °F 73 °F (1921)
Min Temperature 35 °F 34 °F 18 °F (1936)
Degree Days  
Heating Degree Days 21 22  
Month to date heating degree days 361  
Since 1 July heating degree days 799  
Cooling Degree Days 0 0  
Month to date cooling degree days 0  
Year to date cooling degree days 896  
Moisture  
Dew Point 35 °F    
Average Humidity 73    
Maximum Humidity 89    
Minimum Humidity 57    
Precipitation  
Precipitation 0.00 in 0.11 in 2.25 in (1889)
Month to date precipitation 2.05  
Year to date precipitation 38.57  
Sea Level Pressure  
Sea Level Pressure 30.41 in    
Wind  
Wind Speed 4 mph (NE)    
Max Wind Speed 8 mph    
Max Gust Speed -    
Visibility 10 miles    
Events      
T = Trace of Precipitation, MM = Missing Value Source: NWS Daily Summary

Daily Weather History Graph

Daily Weather History Graph

Search for Another Location

Airport:

Trip Planner

Search our weather history database for the weather conditions in past years. The results will help you decide how hot, cold, wet, or windy it might be!

Date:

Astronomy

Nov. 19, 2012 Rise Set
Actual Time 6:53 AM EST 4:42 PM EST
Civil Twilight 6:23 AM EST 5:11 PM EST
Nautical Twilight 5:50 AM EST 5:44 PM EST
Astronomical Twilight 5:18 AM EST 6:16 PM EST
Moon 11:54 AM EST (11/19) 11:06 PM EST (11/19)
Length of Visible Light 10h 47m
Length of Day
9h 49m
Waxing Crescent, 40% of the Moon is Illuminated
Nov 19
Waxing Crescent
Nov 20
First Quarter
Nov 28
Full
Dec 6
Last Quarter
Dec 13
New

Hourly Weather History & Observations

Time (EST) Temp. Windchill Dew Point Humidity Pressure Visibility Wind Dir Wind Speed Gust Speed Precip Events Conditions
12:54 AM 39.9 °F 36.7 °F 33.1 °F 77% 30.53 in 10.0 mi NE 4.6 mph - N/A   Overcast
1:54 AM 39.9 °F 36.7 °F 32.0 °F 73% 30.53 in 10.0 mi NE 4.6 mph - N/A   Overcast
2:54 AM 37.9 °F 34.4 °F 32.0 °F 79% 30.52 in 10.0 mi NNE 4.6 mph - N/A   Mostly Cloudy
3:10 AM 37.4 °F 32.8 °F 32.0 °F 81% 30.52 in 10.0 mi NNE 5.8 mph - N/A   Scattered Clouds
3:21 AM 37.4 °F 32.8 °F 32.0 °F 81% 30.51 in 10.0 mi NE 5.8 mph - N/A   Mostly Cloudy
3:54 AM 39.0 °F 35.7 °F 33.1 °F 79% 30.51 in 10.0 mi NNE 4.6 mph - N/A   Overcast
4:32 AM 37.4 °F 32.1 °F 33.8 °F 87% 30.50 in 10.0 mi NNE 6.9 mph - N/A   Scattered Clouds
4:54 AM 37.9 °F 32.7 °F 32.0 °F 79% 30.50 in 10.0 mi North 6.9 mph - N/A   Clear
5:54 AM 37.0 °F 33.3 °F 32.0 °F 82% 30.48 in 10.0 mi NNE 4.6 mph - N/A   Clear
6:54 AM 36.0 °F 32.1 °F 32.0 °F 86% 30.49 in 10.0 mi NE 4.6 mph - N/A   Clear
7:54 AM 35.1 °F 30.1 °F 32.0 °F 89% 30.48 in 10.0 mi NNE 5.8 mph - N/A   Clear
8:54 AM 39.9 °F 35.1 °F 34.0 °F 79% 30.48 in 10.0 mi NE 6.9 mph - N/A   Clear
9:54 AM 44.1 °F 39.5 °F 35.1 °F 71% 30.47 in 10.0 mi NE 8.1 mph - N/A   Clear
10:54 AM 48.0 °F - 36.0 °F 63% 30.44 in 10.0 mi Variable 6.9 mph - N/A   Mostly Cloudy
11:54 AM 48.0 °F - 37.0 °F 66% 30.41 in 10.0 mi Variable 3.5 mph - N/A   Overcast
12:54 PM 50.0 °F - 37.9 °F 63% 30.38 in 10.0 mi North 5.8 mph - N/A   Overcast
1:31 PM 51.8 °F - 37.4 °F 58% 30.36 in 10.0 mi NE 4.6 mph - N/A   Scattered Clouds
1:54 PM 51.1 °F - 37.9 °F 61% 30.35 in 10.0 mi Variable 4.6 mph - N/A   Clear
2:54 PM 53.1 °F - 37.9 °F 57% 30.33 in 10.0 mi Calm Calm - N/A   Clear
3:54 PM 51.1 °F - 37.0 °F 59% 30.33 in 10.0 mi ENE 3.5 mph - N/A   Clear
4:54 PM 46.9 °F - 36.0 °F 66% 30.32 in 10.0 mi Calm Calm - N/A   Clear
5:54 PM 43.0 °F - 34.0 °F 71% 30.32 in 10.0 mi Calm Calm - N/A   Clear
6:25 PM 41.0 °F - 33.8 °F 76% 30.33 in 10.0 mi Calm Calm - N/A   Mostly Cloudy
6:54 PM 44.1 °F - 36.0 °F 73% 30.32 in 10.0 mi Calm Calm - N/A   Overcast
7:54 PM 46.0 °F 43.9 °F 36.0 °F 68% 30.31 in 10.0 mi NE 4.6 mph - N/A   Overcast
8:54 PM 46.0 °F - 35.1 °F 66% 30.30 in 10.0 mi Calm Calm - N/A   Overcast
10:54 PM 43.0 °F - 35.1 °F 74% 30.26 in 10.0 mi Calm Calm - N/A   Overcast
11:54 PM 42.1 °F - 35.1 °F 76% 30.25 in 10.0 mi Calm Calm - N/A   Overcast